Regional Weather Roundup
Issued by NWS San Angelo, TX

Home | Current Version | Previous Version | Text Only | Print | Product List | Glossary On
Versions: 1 2 3 4 5 6 7 8 9 10 11 12 13 14 15 16 17 18 19 20 21 22 23 24 25 26 27 28 29 30 31 32 33 34 35 36 37 38 39 40 41 42 43 44 45 46 47 48 49 50
000
ASUS44 KSJT 312110
RWRSJT
WEST CENTRAL TEXAS REGIONAL WEATHER ROUNDUP
NATIONAL WEATHER SERVICE SAN ANGELO TX
400 PM CDT FRI JUL 31 2015

NOTE: "FAIR" INDICATES FEW OR NO CLOUDS BELOW 12,000 FEET WITH NO
SIGNIFICANT WEATHER AND/OR OBSTRUCTIONS TO VISIBILITY.

TXZ049-054-064>066-071>073-076>078-098-099-113-114-127-128-139-140-
154-155-168>170-312200
...LOCATIONS ACROSS WEST CENTRAL TEXAS...

CITY           SKY/WX    TMP DP  RH WIND       PRES   REMARKS
SAN ANGELO     SUNNY    101  59  24 NE14G20   30.05F
ABILENE        MOSUNNY   98  58  26 E5        30.05F
DYESS AFB      SUNNY    101  62  27 VRB1      30.03F
JUNCTION       PTSUNNY   99  60  27 NE9       30.03F
SWEETWATER     MOSUNNY   98  54  23 E6        30.11F
BROWNWOOD      LGT RAIN  99  63  30 N10       30.03F
COLEMAN        PTCLDY    98  65  34 NE8G18    30.05F
SONORA         MOSUNNY   93  61  33 NE12      30.10F
OZONA          FAIR      99  54  22 CALM      30.09F
BRADY          SUNNY     99  63  30 NE12      30.04F
$$

TEXAS PANHANDLE/OKLAHOMA PANHANDLE

CITY           SKY/WX    TMP DP  RH WIND       PRES   REMARKS
AMARILLO       MOSUNNY   84  64  50 N8        30.22F
BORGER         PTSUNNY   79  65  62 NE8       30.19F
CANADIAN       CLOUDY    83  66  56 NE8       30.14F
DALHART        PTSUNNY   82  66  58 SE8       30.23F
DUMAS          MOCLDY    78  64  62 SE6       30.22F
GUYMON         NOT AVBL
HEREFORD       PTCLDY    85  66  52 MISG      30.22F
PAMPA          MOCLDY    82  66  58 NE9       30.21F
PERRYTON       NOT AVBL
$$

SOUTHERN PANHANDLE/SOUTH PLAINS/ROLLING PLAINS

CITY           SKY/WX    TMP DP  RH WIND       PRES   REMARKS
LUBBOCK        MOSUNNY   92  65  40 NE10      30.16F
SNYDER         SUNNY     96  58  28 NE3       30.10F
CHILDRESS      MOSUNNY   95  68  41 NE13G21   30.10F
SEMINOLE       MOCLDY    94  49  21 SE6       30.15F
$$

PERMIAN BASIN

CITY           SKY/WX    TMP DP  RH WIND       PRES   REMARKS
MIDLAND        PTSUNNY   96  53  23 E8G18     30.10F
ODESSA         MOSUNNY   98  51  20 E9G16     30.12F
WINK           PTSUNNY   98  51  20 SE13      30.08F
$$

FAR WEST/SOUTHWEST MOUNTAINS/TRANS PECOS

CITY           SKY/WX    TMP DP  RH WIND       PRES   REMARKS
ALPINE         PTCLDY    88  51  27 E8G17     30.27F
DRYDEN           N/A    101  58  24 S10G21    30.04F
EL PASO        MOSUNNY   92  53  26 CALM      30.15F
FORT STOCKTON  MOSUNNY   95  54  25 E14G28    30.11F
GUADALUPE PASS MOSUNNY   84  54  35 E22       30.30F
MARFA          MOSUNNY   88  52  29 E8        30.25F
PECOS          CLEAR     99  49  18 E9        30.07F
$$

DALLAS/FORT WORTH METROPLEX

CITY           SKY/WX    TMP DP  RH WIND       PRES   REMARKS
DFW AIRPORT    PTSUNNY   98  67  36 E12G20    30.01F
FTW MEACHAM    MOSUNNY   98  68  37 NE15      29.99F
DAL-EXECUTIVE  SUNNY     98  68  37 E13       30.01F
GRAND PRAIRIE  SUNNY     97  70  41 NE14      30.02F
ADDISON        MOSUNNY   95  64  36 NE13G18   30.03F
MESQUITE       CLEAR     95  64  36 E9        30.02F
LANCASTER      CLEAR     97  65  35 NE10      30.02F
$$

NORTH CENTRAL TEXAS

CITY           SKY/WX    TMP DP  RH WIND       PRES   REMARKS
SHRMAN/DENISON PTCLDY    94  70  45 NE13      30.06F
GAINESVILLE    MOSUNNY   93  68  43 NE9G18    30.06F
BRIDGEPORT     NOT AVBL
DENTON         MOSUNNY   94  69  44 E13G23    30.01F
WAXAHACHIE     PTCLDY    97  71  42 E9        30.03F
GRANBURY       PTCLDY   100  66  32 E10       30.01F
$$

WESTERN NORTH TEXAS

CITY           SKY/WX    TMP DP  RH WIND       PRES   REMARKS
WICHITA FALLS  MOSUNNY   96  71  44 NE15G21   30.04S
VERNON           N/A     78  67  68 S9        30.10R
BRECKENRIDGE   CLEAR    102  58  23 CALM      30.01F
COMANCHE       MOSUNNY   99  65  33 NE8       30.03F
$$

CENTRAL AND SOUTH CENTRAL TEXAS

CITY           SKY/WX    TMP DP  RH WIND       PRES   REMARKS
AUSTIN/BERGSTM PTSUNNY   97  68  38 NE12      29.95F
WACO           MOSUNNY  100  69  36 E12       29.98F
HILLSBORO      PTCLDY    98  65  34 NE12G21   30.01F
TEMPLE         PTSUNNY  100  70  37 NE12G18   29.98F
KILLEEN-GRAY   MOSUNNY   97  70  41 NE16      29.99F
FORT HOOD      MOSUNNY   97  67  37 E10       29.98F
GEORGETOWN     MOSUNNY  100  66  32 MISG      29.96F
LAGO VISTA     FAIR     100  62  28 NE9G17    30.00F
SAN MARCOS     NOT AVBL
NEW BRAUNFELS  PTSUNNY  100  69  36 NE12      29.95F
RANDOLPH AFB   LGT RAIN  97  68  38 N14       29.97F
SAN ANTONIO    PTSUNNY   81  68  64 NW18G31   30.00R THUNDER
STINSON        MOSUNNY   99  66  33 NE6       29.94F
PLEASANTON     NOT AVBL
LA GRANGE      PTSUNNY   98  75  48 NE8       29.94S
GIDDINGS       MOCLDY    82  73  74 CALM      30.01F
$$

EAST TEXAS

CITY           SKY/WX    TMP DP  RH WIND       PRES   REMARKS
PARIS          SUNNY     93  57  29 E14       30.06F
CLARKSVILLE    NOT AVBL
TYLER          SUNNY     96  58  27 NE12      30.03F
LONGVIEW       SUNNY     96  57  27 NE8       30.02F
PALESTINE      CLEAR     97  56  25 NE12      30.02F
NACOGDOCHES    SUNNY     93  61  33 E9        30.00F
$$

TEXAS HILL COUNTRY AND EDWARDS PLATEAU

CITY           SKY/WX    TMP DP  RH WIND       PRES   REMARKS
LLANO          MOCLDY    97  64  34 CALM      30.02F
HORSESHOE BAY  FAIR     100  63  29 NE10G20   29.99F
KERRVILLE      NOT AVBL
FREDERICKSBRG  NOT AVBL
ROCKSPRINGS    MOCLDY    91  63  38 CALM      30.10F
HONDO          PTSUNNY   92  75  57 N6        30.01F
UVALDE         MOCLDY    96  67  39 SE3       29.98F
DEL RIO        MOSUNNY  101  63  28 SE7       29.96F
$$

SOUTHEAST TEXAS

CITY           SKY/WX    TMP DP  RH WIND       PRES   REMARKS
COLLEGE STN    MOSUNNY   99  70  38 E14G21    29.96F
CALDWELL       PTCLDY    97  68  38 N9G16     29.99F
CROCKETT       CLEAR     99  59  26 NE12G17   30.02F
BRENHAM        MOSUNNY   98  73  45 NE9       29.96F
HUNTSVILLE     SUNNY     97  68  38 E10G17    29.98F
CONROE         SUNNY     97  65  34 VRB7G17   29.97F
HOUSTON BUSH   MOSUNNY   99  71  40 NE12G21   29.94F
HOUSTON HOBBY  MOSUNNY   99  70  38 NE16      29.93F
PERLAND        MOSUNNY   99  70  38 NE10G22   29.94F
WHARTON        PTCLDY   100  71  39 NE8G17    29.92F
$$

THE UPPER TEXAS COAST

CITY           SKY/WX    TMP DP  RH WIND       PRES   REMARKS
ORANGE         PTCLDY    93  60  33 CALM      29.95F
PORT ARTHUR    SUNNY     98  63  31 NE9G17    29.93F
GALVESTON      MOSUNNY   96  76  52 N15       29.94F
ANGLETON       MOSUNNY   99  74  44 SE6       29.93F THUNDER
BAY CITY       MOCLDY    97  74  46 E16       29.91F
$$

TEXAS COASTAL BEND, RIO GRANDE PLAINS DEEP SOUTH TEXAS

CITY           SKY/WX    TMP DP  RH WIND       PRES   REMARKS
VICTORIA       MOSUNNY   98  72  42 NE12      29.91F
BEEVILLE       FAIR      97  73  45 NE6       29.93F
ROCKPORT       MOSUNNY   95  76  53 S9        29.92F
PORT ARANSAS   PTCLDY    88  78  71 S13       29.94F
PORT LAVACA    PTCLDY    99  72  42 E6        29.91F
CORPUS CHRISTI PTSUNNY   98  69  38 NE7       29.94S THUNDER
KINGSVILLE NAS PTSUNNY  100  74  43 SE15      29.94F
COTULLA        PTSUNNY   85  76  74 E5        29.97S THUNDER
LAREDO         PTSUNNY  100  66  32 S12       29.96F
BROWNSVILLE    CLOUDY    87  73  62 E9        29.98F
PORT ISABEL    CLOUDY    87  75  67 E12       29.97F
HEBBRONVILLE     N/A     96  64  34 E12       29.98F
MCALLEN        CLOUDY    96  66  37 E9        29.97F
WESLACO        CLOUDY    93  65  39 E5        29.96F
FALFURRIAS     CLOUDY    95  68  41 S7        29.95F
EDINBURG       CLOUDY    94  65  38 E7        29.97F
$$



USA.gov is the U.S. government's official web portal to all federal, state and local government web resources and services.